Showing default

KUIPER-00103, 65141

Orbit data source: Space-Track

KUIPER-00103, 65141 is a payload satellite owned by Kuiper Systems (US) in LEO that was launched on Mon, 11 Aug 2025 UTC via an FALCON 9 launch vehicle from the Air Force Eastern Test Range (AFETR). Payload-class satellites include a variety of spacecraft equipped with specific instruments for various scientific and technological missions. These include communications satellites like Starlink; space stations such as the ISS; scientific satellites like the Hubble; Earth observation satellites from companies like Planet Labs, Umbra, and HawkEye 360; GPS; miniature CubeSats for education and research; and military/defense satellites.

Loading next visibility...
Identifier
65141, 2025-171K
Orbit
LEO
Country
Flag of USUS
Related business
Manufacturer
Kuiper Systems
Mission
Operational Commercial Communications
Bus & Motor
KUIPER, Unknown motor
Mass
~490 kg wet, ~490 kg dry
Launch date (UTC)
2025-08-11 (10 months ago)
Launch vehicle
FALCON 9
Launch site
Air Force Eastern Test Range (AFETR)
Object type
Payload
Rocket body
Debris
Shape & HBR
Box + 2 Pan, 3.4 m
Radar Cross Section
2.326 m², Large (>1 m²)

Expand to show TLE details & history
Last TLE update: 22 hours ago

TLE from 22 hours ago
0 KUIPER-00103
1 65141U 25171K   26170.93786500  .00003038  00000-0  42731-3 0  9991
2 65141  51.8996  78.4160 0000795 102.5653 257.5398 14.79933253 47855
Epoch: 2026-06-19T22:30Z
TLE epoch observation values (Epoch: 2026-06-19T22:30:31.536Z)
Latitude
-0.00002°
Longitude
-167.37508°
Altitude
630.402 km
Speed
7.544 km/s
True Right ascension
05h 13m 39s
True Declination
0° 00' 00"
Sunlit
Object was in daylight at epoch
Visualization orbit readout
Latitude
Unknown
Longitude
Unknown
Altitude
Unknown
Speed
Unknown
Apparent Right ascension
Unknown
Apparent Declination
Unknown
Sunlit
N/A
Visualization observer readout
Local Sidereal Time
07:14:58
Azimuth
Unknown
Elevation
Unknown
Doppler factor
Unknown
Orbital elements
Apogee altitude
630.543 km
Perigee altitude
629.429 km
Semi-major axis
7,008.123 km
Eccentricity
0.00008
Inclination
51.8996°
RAAN
78.416°
Arg. of periapsis
102.5653°
True anomaly
257.5309°
Mean anomaly
257.5398°
Eccentric anomaly
257.53535°
Mean motion
3.69948 °/min
Orbital period
97.31 mins
BSTAR
0.00042731
Loading maneuver chart data...
Computing Atmospheric mass density...
Loading historical data...
Loading historical data...
Loading historical data...
Loading historical data...
Loading historical data...
Loading historical data...
Loading historical data...

Documentation

Showing up to 5 results
|